Location: Croissy-Beaubourg
(48.8283°N, 2.6696°E)
Time: 00:40:52
(UTC+00:00)

USA 215 - Pass Details

Date: 29 May 2022
Orbit: 1099 x 1108 km, 123.0° (Epoch: 10 June)

Event Time Altitude Azimuth Distance (km) Brightness Sun altitude
Rises 21:27:32 0° 64° (ENE) 3,928 6.1 -12.9°
Reaches altitude 10° 21:31:15 10° 85° (E) 2,967 5.3 -13.2°
Maximum altitude 21:35:00 16° 121° (ESE) 2,551 4.7 -13.6°
Enters shadow 21:35:35 16° 127° (SE) 2,561 4.6 -13.6°
